Temp
16 16 17 17 18 18 18 19 19 19 19 19 19 19 19 19 19 18 18 18 17 17 16 16 16 15 15 15 15 15 15 14 14 14 14 14 14 13 13 13 13 13 12 12 12 12 11 11 11 11 10 10 10 9 9 9 9 9 9 10 10 9 8 7 7 7 7 6 6
16 16 16 16 17 17 18 18 18 18 18 19 19 19 19 18 18 18 18 18 18 17 17 17 16 16 15 15 15 15 14 14 14 14 14 14 13 13 13 13 13 12 12 12 12 11 11 11 10 10 10 9 9 9 8 8 8 8 8 9 9 9 7 7 6 6 6 6 6
17 17 17 17 17 17 17 18 18 18 18 18 18 18 18 18 18 18 18 18 18 18 17 17 17 16 16 15 15 14 14 14 14 14 14 13 13 13 13 12 12 12 12 12 11 11 10 10 10 10 10 9 9 9 8 8 7 7 7 8 8 8 7 6 6 6 5 5 5
17 17 17 17 17 17 17 17 18 18 18 18 18 18 18 18 18 18 18 18 18 17 17 17 17 16 16 15 15 14 14 14 14 14 14 13 13 13 12 12 12 12 12 12 11 10 10 10 10 10 10 9 9 8 8 7 7 7 7 7 7 7 6 6 6 5 5 5 5
16 17 17 17 17 17 17 17 17 17 18 18 18 18 18 18 18 18 17 17 17 17 17 17 17 16 15 15 14 14 14 14 14 14 13 13 13 12 12 11 11 11 11 11 11 11 10 10 10 10 9 9 8 8 8 7 7 7 7 7 6 6 6 6 5 5 5 4 4
16 16 16 17 17 17 17 17 17 17 17 17 17 18 18 18 18 17 17 17 17 17 17 16 16 16 15 14 14 14 14 13 13 13 13 13 12 12 11 11 11 11 11 11 11 11 10 10 10 9 9 8 8 7 7 7 7 7 7 6 6 6 6 5 5 5 4 4 4
16 16 16 16 17 17 17 17 17 17 17 16 17 17 17 17 17 17 17 17 17 16 16 16 15 15 15 14 14 14 13 13 13 12 12 12 12 11 11 11 11 11 11 10 10 10 10 10 9 9 8 8 7 7 7 7 7 7 6 6 5 5 5 5 5 4 4 4 4
15 15 16 16 17 17 17 17 17 17 17 17 17 16 16 16 17 17 17 17 16 16 16 15 15 15 14 14 14 13 13 13 12 12 12 11 11 11 11 11 11 11 10 10 10 9 9 9 9 8 8 7 7 7 7 6 6 6 6 6 5 5 5 5 4 4 3 3 3
14 15 15 16 16 16 17 17 17 17 17 17 18 17 17 16 16 16 16 16 16 15 15 15 14 14 14 14 14 13 13 12 12 12 11 11 11 11 11 11 10 10 10 9 9 9 9 8 8 8 7 7 7 6 6 6 6 6 6 5 5 5 4 4 4 3 3 3 3
13 14 14 15 15 15 16 16 16 17 17 17 18 18 18 17 16 16 15 15 15 15 14 14 14 14 14 14 13 13 13 12 12 12 11 11 11 11 11 10 10 10 9 9 9 8 8 8 7 7 7 6 6 6 6 6 6 6 5 5 5 4 3 3 3 3 3 3 3
12 13 13 14 14 14 15 15 15 16 16 16 16 17 17 17 16 15 15 15 14 14 14 14 14 14 14 14 13 13 12 12 11 11 11 11 11 10 10 10 9 9 9 8 8 7 7 7 7 6 6 6 6 6 6 6 5 5 5 4 4 4 3 2 2 2 2 2 2
12 12 12 13 13 14 14 14 14 14 14 15 15 15 15 15 15 15 14 14 14 13 14 14 14 14 13 13 13 12 12 11 11 11 10 10 10 9 9 9 8 8 8 7 7 7 6 6 6 6 6 6 6 6 5 5 5 5 4 4 3 3 3 2 2 2 2 2 2
11 11 12 12 13 13 13 13 14 14 14 14 14 14 14 14 14 14 14 13 13 13 13 13 13 13 13 12 12 12 11 11 10 10 9 9 9 8 8 8 8 7 7 7 6 6 6 6 6 6 6 6 5 5 5 5 4 4 4 3 3 3 2 2 2 1 1 1 2
11 11 11 12 12 12 13 13 13 13 13 13 13 14 14 13 13 13 13 13 13 13 13 13 13 12 12 12 11 11 10 10 9 9 8 8 8 7 7 7 7 6 6 6 6 6 5 5 5 5 5 5 5 4 4 4 4 4 3 3 2 2 2 1 1 1 1 1 1
11 11 11 11 12 12 12 13 13 13 13 13 13 13 13 13 12 12 12 12 13 13 13 13 12 12 11 11 10 10 10 9 9 8 7 7 7 7 6 6 6 6 5 5 5 5 5 5 5 5 5 5 4 4 3 3 3 3 3 2 2 2 1 1 1 1 1 1 1
11 11 11 11 11 12 12 12 12 12 12 12 12 12 12 12 12 12 12 12 12 12 13 12 12 11 11 10 10 9 9 8 8 7 7 7 6 6 6 6 5 5 5 5 5 5 5 5 5 4 4 4 4 3 3 3 2 2 2 2 1 1 1 0 0 1 1 1 1
10 11 11 11 11 11 12 12 12 11 11 11 11 11 11 11 11 11 11 11 11 11 12 12 12 12 11 10 9 8 8 7 7 7 6 6 6 5 5 5 5 4 4 4 4 4 4 4 4 4 4 3 3 3 2 2 2 1 1 1 1 1 0 0 1 1 1 2 2
10 10 10 11 11 11 11 11 11 11 10 10 10 10 10 10 11 11 10 10 10 10 10 10 10 11 11 10 9 8 7 7 6 6 6 5 5 5 5 4 4 4 4 4 4 4 4 3 3 3 3 3 3 2 2 2 1 1 1 1 0 0 1 1 1 2 2 2 2
9 10 10 10 10 10 10 10 10 10 9 9 9 9 9 9 10 10 9 9 9 9 9 8 8 8 9 9 8 7 7 6 6 5 5 5 4 4 4 4 4 4 3 3 3 3 3 3 3 3 2 2 2 2 2 1 1 1 1 1 1 1 1 1 2 2 2 2 2
9 9 9 9 9 9 9 9 9 9 9 9 9 9 9 9 9 9 9 9 8 8 8 8 7 7 7 7 7 7 6 6 5 5 5 4 4 4 4 3 3 3 3 3 3 2 2 2 2 2 2 2 2 1 1 1 1 1 1 1 1 1 2 2 2 2 2 1 1
8 8 8 8 8 8 8 8 8 8 8 8 8 8 8 8 8 8 8 8 8 8 7 7 7 6 6 6 6 6 5 5 5 4 4 4 3 3 3 3 3 2 2 2 2 2 2 2 2 2 2 2 1 1 1 1 1 1 1 1 1 1 1 1 1 1 1 1 0
7 7 7 7 7 7 7 7 7 7 8 7 7 7 7 7 7 7 7 7 7 7 6 6 6 5 5 5 5 5 5 4 4 4 3 3 3 3 2 3 2 2 2 2 2 2 2 2 2 1 1 1 1 1 1 1 1 1 1 1 1 1 1 1 0 0 0 0 0
6 6 6 6 6 7 7 7 7 7 7 6 6 6 6 6 6 6 6 6 6 5 5 5 5 4 4 4 4 4 4 3 3 3 3 3 2 2 2 2 3 2 2 2 2 2 1 1 1 1 1 1 1 1 1 1 1 1 1 0 0 0 0 0 0 0 0 0 0
5 6 6 6 6 6 6 6 6 6 6 5 5 5 5 5 5 5 5 4 4 4 4 4 4 4 4 4 4 3 3 3 3 2 2 2 2 2 2 2 2 2 2 2 1 1 1 1 1 1 1 1 1 1 1 1 1 0 0 -0 -0 -0 -0 0 0 0 0 0 0
5 5 5 5 5 5 5 5 5 5 5 5 4 4 4 4 4 4 4 3 3 3 3 3 3 3 3 3 3 3 3 3 3 2 2 2 2 2 2 2 2 1 1 1 1 1 1 1 1 1 1 1 1 0 0 0 -0 -0 -0 -0 -0 -0 -0 -0 -0 -0 -0 -0 -0
4 4 4 4 4 4 4 4 4 4 4 4 4 3 3 3 3 3 3 3 3 3 2 2 2 2 2 2 2 2 2 2 2 2 2 2 2 2 1 1 1 1 1 1 1 1 1 1 1 1 1 0 0 0 -0 -0 -0 -0 -0 -0 -0 -0 -0 -0 -0 -0 -0 -0 -0
3 3 3 4 3 3 3 3 3 3 3 3 3 3 3 3 2 2 2 2 2 2 2 2 2 2 2 2 2 2 2 2 2 2 2 1 1 1 1 1 1 1 1 1 1 1 1 1 1 1 0 0 -0 -0 -0 -0 -0 -0 -0 -0 -0 -0 -0 -0 -1 -1 -0 -0 -0
3 3 3 3 3 2 2 2 2 2 2 2 2 2 2 2 2 2 2 2 2 2 2 2 2 2 2 2 2 2 2 1 1 1 1 1 1 1 1 1 1 1 1 1 1 1 1 1 0 0 0 -0 -0 -0 -0 -0 -0 -0 -0 -0 -0 -0 -0 -1 -1 -1 -1 -1 -1
2 2 2 2 2 2 2 2 2 2 2 2 2 2 2 2 2 2 2 2 2 2 2 2 1 1 1 1 1 1 1 1 1 1 1 1 1 1 1 1 1 1 1 1 1 1 1 0 0 0 -0 -0 -0 -0 -0 -0 -0 -0 -0 -0 -0 -1 -1 -1 -1 -1 -1 -1 -1
2 2 2 2 2 2 1 1 1 1 2 2 2 2 2 2 2 2 2 2 1 1 1 1 1 1 1 1 1 1 1 1 1 1 1 1 1 2 2 2 2 2 1 1 1 1 0 0 -0 -0 -0 0 0 0 -0 -0 -0 -0 -0 -0 -1 -1 -1 -1 -1 -1 -1 -1 -2
2 2 2 1 1 1 1 1 1 1 1 1 1 1 1 1 1 1 1 1 1 1 1 1 1 1 1 1 1 1 1 1 1 2 2 2 2 2 2 2 2 1 1 1 1 0 0 -0 -0 -0 0 0 0 0 0 -0 -0 -0 -1 -1 -1 -1 -1 -2 -2 -2 -2 -2 -2
1 1 1 1 1 1 1 1 1 1 1 1 1 1 1 1 1 1 1 1 1 1 1 1 1 1 1 1 1 1 1 2 2 2 2 2 1 1 1 1 1 1 1 0 -0 -0 -0 -0 -0 -0 0 0 0 0 -0 -0 -1 -1 -1 -1 -2 -2 -2 -2 -2 -2 -2 -3 -3
1 1 1 1 1 1 1 1 1 1 1 1 1 1 0 0 0 0 0 1 1 1 1 1 1 1 1 1 1 1 1 1 1 1 1 1 1 0 0 0 -0 -0 -0 -0 -1 -1 -1 -0 -0 -0 -0 -0 -0 -0 -1 -1 -1 -1 -2 -2 -2 -2 -3 -3 -3 -3 -3 -3 -3
1 1 1 1 1 1 1 1 1 0 0 0 0 0 0 0 0 0 0 0 0 0 0 1 1 1 1 1 1 1 1 1 1 0 0 0 -0 -0 -0 -1 -1 -1 -1 -1 -1 -1 -1 -1 -1 -0 -0 -1 -1 -1 -1 -1 -2 -2 -2 -3 -3 -3 -3 -3 -3 -3 -3 -3 -2
0 0 0 0 0 0 0 0 0 0 0 0 -0 -0 -0 -0 -0 -0 -0 0 0 0 0 0 0 0 0 0 0 0 0 0 0 -0 -0 -0 -1 -1 -1 -1 -1 -1 -1 -1 -1 -1 -1 -1 -1 -1 -1 -1 -1 -2 -2 -2 -3 -3 -3 -3 -3 -3 -3 -3 -3 -2 -2 -2 -2
0 0 0 -0 -0 -0 -0 -0 -0 -0 -0 -0 -0 -0 -0 -0 -0 -0 -0 -0 -0 -0 -0 -0 -0 -0 -0 -0 0 0 -0 -0 -0 -0 -0 -1 -1 -1 -1 -2 -2 -2 -2 -2 -2 -2 -2 -2 -2 -2 -2 -2 -2 -2 -3 -3 -3 -3 -3 -3 -3 -3 -3 -3 -2 -2 -2 -2 -2
-0 -0 -0 -0 -0 -0 -0 -0 -0 -0 -1 -1 -1 -1 -1 -1 -1 -0 -0 -0 -0 -0 -0 -0 -0 -0 -0 -0 -0 -0 -0 -0 -0 -1 -1 -1 -1 -2 -2 -2 -2 -3 -3 -3 -3 -3 -3 -3 -2 -2 -2 -2 -3 -3 -3 -3 -3 -3 -3 -3 -3 -3 -3 -3 -3 -3 -3 -3 -3
-1 -1 -1 -1 -1 -1 -1 -1 -1 -1 -1 -1 -1 -1 -1 -1 -1 -1 -1 -0 -1 -1 -1 -1 -1 -1 -1 -0 -0 -1 -1 -1 -1 -1 -1 -1 -1 -2 -2 -3 -3 -3 -3 -3 -3 -3 -3 -3 -2 -2 -2 -2 -3 -3 -3 -3 -3 -3 -3 -3 -3 -3 -3 -3 -3 -3 -3 -3 -3
-1 -1 -1 -1 -1 -1 -1 -1 -1 -1 -1 -1 -1 -1 -1 -1 -1 -1 -1 -0 -0 -1 -1 -1 -1 -1 -1 -0 -0 -0 -1 -1 -1 -1 -1 -1 -2 -2 -2 -3 -3 -3 -3 -3 -3 -3 -2 -2 -2 -2 -2 -2 -3 -3 -2 -2 -2 -2 -2 -3 -3 -3 -3 -3 -3 -3 -3 -3 -3
-1 -1 -1 -1 -1 -1 -1 -1 -1 -1 -1 -1 -1 -1 -1 -1 -1 -1 -1 -1 -0 -1 -1 -1 -1 -1 -0 -0 -0 -0 -1 -1 -1 -1 -1 -2 -2 -2 -2 -2 -3 -3 -2 -2 -2 -2 -2 -2 -2 -2 -2 -2 -2 -2 -2 -2 -2 -2 -2 -2 -2 -3 -3 -3 -3 -3 -3 -3 -4
-1 -1 -1 -1 -1 -1 -1 -1 -1 -1 -1 -1 -1 -1 -1 -1 -1 -1 -1 -1 -1 -1 -1 -1 -1 -0 -0 -0 -0 -0 -1 -1 -1 -1 -1 -2 -2 -2 -2 -2 -2 -2 -2 -2 -2 -2 -2 -2 -2 -2 -2 -2 -2 -2 -2 -2 -2 -2 -2 -2 -2 -2 -3 -3 -3 -3 -3 -3 -3
Height
760 760 760 761 761 761 761 761 762 762 762 762 762 763 763 764 764 764 765 765 766 766 767 768 768 768 768 768 768 768 769 769 769 769 769 769 769 769 769 770 770 771 772 773 774 775 776 776 777 778 778 779 779 780 780 780 781 781 781 781 782 784 786 788 788 789 789 790 791
759 760 760 760 761 761 761 761 761 761 761 761 762 762 762 763 763 763 764 764 764 765 765 766 766 767 767 767 767 767 768 768 768 768 768 768 769 769 769 769 769 770 772 773 774 774 774 775 776 776 777 778 779 779 780 780 780 781 780 779 779 782 784 786 787 788 789 789 790
759 759 760 760 760 761 761 761 761 761 761 761 761 761 762 762 762 763 763 763 763 764 764 764 765 765 766 766 766 766 767 767 767 767 767 767 768 768 768 769 769 770 771 773 773 773 773 774 774 775 776 777 778 778 779 779 780 780 780 779 778 780 783 785 786 787 788 789 790
760 760 760 760 760 760 760 760 760 760 761 761 761 761 761 761 761 762 762 762 762 763 763 763 764 764 765 765 765 765 765 766 766 766 766 766 767 767 768 768 768 769 769 770 771 772 772 773 774 774 775 776 776 777 777 777 778 779 779 779 779 779 781 784 785 787 788 789 790
760 760 760 760 760 760 760 760 760 760 760 760 760 760 760 760 760 761 761 761 761 762 762 762 763 763 764 764 764 764 764 764 764 765 765 765 766 766 767 767 768 768 769 769 770 771 772 773 774 774 774 775 775 775 775 775 776 777 778 778 779 779 780 782 784 785 787 788 790
760 760 760 760 760 759 759 759 759 759 760 760 760 760 760 760 760 760 760 760 760 761 761 761 761 762 762 763 763 763 763 763 763 763 764 764 764 765 766 766 767 767 768 768 769 769 771 772 772 772 773 774 774 774 774 774 775 775 776 776 777 779 780 781 782 784 786 787 789
759 759 759 759 759 759 759 759 759 759 759 759 759 759 759 759 759 759 759 759 759 760 760 760 760 761 761 762 762 762 762 762 762 762 763 763 763 764 764 765 766 766 767 767 768 768 769 769 770 771 771 772 772 773 773 773 774 774 774 775 776 778 779 780 782 783 785 786 787
759 759 759 759 759 759 759 759 759 759 758 758 758 759 759 759 759 759 759 759 759 759 759 759 759 760 760 761 761 761 761 762 762 762 762 762 762 763 764 764 764 765 765 766 766 767 768 768 769 769 770 770 770 771 771 772 773 774 774 775 776 777 779 780 781 782 784 785 786
759 759 759 759 759 759 759 759 759 759 758 758 758 758 758 758 758 758 758 758 758 758 758 758 758 759 759 759 760 760 761 761 761 761 761 762 762 762 763 764 764 764 765 766 766 767 767 767 767 768 768 769 769 770 770 772 773 774 774 775 776 777 778 779 780 782 783 784 786
760 759 759 759 759 759 758 758 758 758 758 758 757 757 757 757 757 757 757 757 757 757 757 757 757 757 758 758 759 759 759 760 760 760 761 761 762 762 762 763 763 764 764 765 765 766 766 766 766 767 767 768 768 769 770 771 772 773 774 774 775 776 778 779 780 781 783 784 785
760 759 759 759 759 758 758 758 757 757 757 757 757 756 756 756 756 756 756 755 755 755 756 756 756 756 757 757 758 758 759 759 759 760 760 761 761 762 762 762 763 763 764 764 764 764 765 765 765 766 767 767 769 769 770 771 772 772 773 774 775 776 778 779 780 781 783 784 785
760 759 759 759 759 758 758 758 757 757 757 757 756 756 756 755 755 755 754 754 754 755 755 755 755 756 756 756 757 757 758 759 759 759 760 760 761 761 762 762 762 763 763 763 764 764 764 765 765 766 767 768 769 769 770 771 771 772 773 774 775 776 778 779 780 781 782 783 784
760 759 759 759 758 758 758 758 757 757 757 757 757 756 756 756 755 754 754 753 754 754 755 755 755 755 756 756 756 757 757 758 759 759 760 760 761 761 761 762 762 763 763 763 764 764 764 765 765 766 767 768 769 769 770 771 772 772 773 774 775 777 778 779 780 781 782 783 784
760 759 759 759 758 758 758 757 757 757 757 757 756 756 756 755 755 754 753 753 753 754 754 755 755 755 756 756 757 757 757 758 759 760 760 761 761 761 762 762 763 763 763 763 764 764 764 765 766 767 768 769 769 770 770 771 772 773 774 775 776 777 779 779 780 781 782 784 785
760 759 759 758 758 758 758 757 757 757 757 756 756 756 756 755 755 754 754 752 751 752 753 754 755 756 756 757 757 757 758 758 759 760 761 761 761 762 762 762 763 763 763 763 764 764 765 766 766 767 768 769 769 770 771 772 773 774 775 776 777 778 779 780 781 782 783 784 785
760 759 759 758 758 758 757 757 757 757 756 756 756 756 755 755 755 754 754 753 751 750 750 752 754 755 757 758 758 758 758 758 759 760 761 761 762 762 762 762 763 763 763 763 764 764 765 766 767 768 769 769 770 771 772 773 774 775 776 777 778 779 780 781 782 783 784 785 787
759 759 759 758 758 758 757 757 757 757 756 756 756 755 755 754 754 754 753 753 752 750 749 749 750 752 755 757 758 758 758 759 759 760 761 762 762 762 763 763 763 763 764 764 764 765 766 766 767 768 769 769 770 771 772 773 774 775 777 778 779 780 781 782 784 785 786 787 788
759 759 758 758 758 758 757 757 757 757 756 756 756 755 754 754 754 754 753 753 752 751 750 749 748 749 752 755 757 758 758 759 759 760 761 762 763 763 763 763 764 764 764 764 765 765 766 767 767 768 769 770 771 772 773 774 775 776 777 778 780 781 782 784 785 787 788 789 789
759 759 758 758 758 757 757 757 757 756 756 756 755 755 754 754 754 754 753 753 752 752 751 751 750 750 751 753 755 756 757 758 759 761 762 763 764 764 764 764 764 764 765 765 766 766 767 767 768 769 770 771 772 772 773 774 775 777 778 779 781 782 784 785 786 788 788 789 789
759 758 758 758 758 757 757 757 756 756 756 756 755 755 754 754 754 754 753 753 752 752 752 752 752 752 752 753 753 754 755 757 759 761 762 763 764 764 765 765 765 765 766 766 767 767 768 769 769 770 770 771 772 773 774 775 776 778 779 781 782 784 785 786 787 788 789 789 789
759 758 758 758 757 757 757 757 756 756 756 755 755 755 754 754 754 754 753 753 752 752 752 752 753 754 754 754 754 754 755 757 759 761 762 763 764 764 765 765 766 766 767 768 768 769 769 769 770 770 771 772 773 774 775 776 778 779 780 782 783 784 785 786 787 788 789 789 789
759 759 758 758 757 757 757 756 756 756 756 755 755 755 755 754 754 754 754 753 753 753 753 753 754 754 755 755 755 755 756 757 759 760 762 763 764 765 766 766 767 767 768 768 769 769 770 770 771 771 772 773 774 775 776 777 778 780 781 782 784 784 785 786 787 788 789 789 790
759 759 758 758 757 757 756 756 756 756 756 756 756 755 755 755 754 754 754 754 754 754 754 754 754 755 756 756 756 756 757 758 759 761 762 763 764 765 767 767 768 768 768 769 769 770 770 771 772 772 773 774 775 776 777 778 779 780 781 783 784 784 785 786 788 789 789 790 790
760 759 759 758 757 757 757 756 756 756 756 756 756 756 756 755 755 755 755 755 755 755 755 755 756 756 757 757 757 758 758 759 760 762 763 764 765 766 767 768 768 769 769 769 770 770 771 772 773 774 774 775 776 777 778 779 780 781 782 783 783 784 786 787 789 789 790 790 790
761 760 759 759 758 758 757 757 756 756 756 756 756 756 756 756 756 756 756 756 756 757 757 757 757 758 758 759 759 760 760 761 762 764 764 765 766 767 767 768 768 769 770 770 771 771 772 772 773 774 775 776 777 778 779 780 780 781 782 783 784 785 786 788 789 790 790 790 790
761 761 760 759 759 759 758 757 757 757 757 757 757 757 757 757 757 758 758 758 758 759 759 759 759 760 760 760 761 762 763 764 764 765 765 766 767 767 768 769 769 770 770 771 772 773 773 774 774 775 776 777 778 779 779 780 781 782 783 784 785 786 787 789 789 790 790 790 790
762 762 761 761 760 759 759 759 758 758 758 758 758 758 758 758 759 759 759 759 760 760 761 761 762 762 762 763 763 764 765 765 766 766 767 767 768 769 769 769 770 771 772 773 773 774 774 775 775 776 776 777 778 779 780 781 782 783 784 784 785 787 788 789 789 790 790 790 791
763 763 762 762 761 761 760 759 759 759 759 759 759 759 759 760 760 760 760 761 761 762 762 763 763 764 764 765 765 766 766 767 768 768 769 769 770 770 771 771 772 772 773 774 774 775 775 776 776 777 777 778 779 779 780 781 782 783 784 785 786 787 788 789 789 790 790 790 791
764 764 763 763 762 762 761 761 760 760 760 760 760 760 761 761 762 762 762 763 763 763 764 764 765 765 765 766 767 767 768 769 769 770 771 772 772 773 773 773 774 774 775 775 776 776 776 777 778 778 779 779 779 780 781 782 783 784 785 786 787 787 788 789 789 790 790 791 791
765 765 764 764 764 763 763 762 762 762 762 762 762 762 763 763 763 764 764 764 764 765 765 766 766 766 767 767 768 769 770 771 772 772 773 774 774 775 775 775 776 776 777 777 778 778 778 778 779 779 779 780 780 781 782 783 784 784 785 786 787 788 789 789 789 790 790 791 791
767 766 766 765 765 764 764 764 764 764 764 764 764 764 764 764 765 765 765 765 766 766 767 767 768 768 769 769 770 771 772 773 774 774 775 775 776 777 777 777 778 778 779 779 779 779 779 779 780 780 780 781 782 782 783 784 784 785 786 787 787 788 789 789 789 790 790 791 791
768 768 767 767 766 766 766 766 765 765 765 765 765 765 766 766 766 767 767 767 767 768 768 769 769 770 770 771 772 773 774 774 775 776 776 777 777 778 778 779 779 780 780 781 780 780 780 781 781 781 782 782 783 783 784 784 785 786 786 787 788 788 789 789 790 790 791 791 791
769 769 768 768 768 768 767 767 767 767 767 767 767 767 767 768 768 768 769 769 769 769 770 770 771 772 772 773 774 775 775 776 777 777 777 778 778 779 779 780 781 782 782 782 782 782 782 782 782 783 783 783 784 784 784 785 785 786 787 788 788 789 789 789 790 790 791 791 792
770 770 769 769 769 769 769 768 768 768 768 768 768 769 769 769 769 770 770 770 771 771 771 772 773 773 774 774 775 776 777 778 778 778 779 779 779 780 781 782 783 784 784 784 783 783 783 783 783 784 784 784 784 784 785 785 786 787 788 788 789 789 790 790 791 791 792 792 793
771 771 770 770 770 769 769 769 769 769 769 769 770 770 771 771 771 772 772 772 772 772 773 774 774 775 775 776 777 777 778 779 779 780 780 781 781 782 783 784 784 785 785 785 784 784 784 784 784 784 784 784 784 785 786 786 787 788 788 789 789 790 791 791 792 792 792 793 793
772 772 771 771 771 771 770 770 770 770 771 771 771 772 772 773 773 774 774 774 774 774 774 775 776 776 777 778 779 779 780 781 781 782 783 783 783 784 784 785 786 786 786 786 786 785 785 785 785 785 785 785 785 786 787 788 788 789 789 790 791 791 792 792 793 793 793 793 793
773 773 772 772 772 772 772 772 772 772 772 772 773 773 774 774 775 775 776 776 776 776 777 777 778 778 779 779 780 781 782 783 783 784 784 784 785 785 786 786 787 787 787 787 787 786 786 786 786 786 786 786 787 788 788 789 789 790 791 791 792 792 793 793 793 793 793 793 793
774 774 774 773 773 773 773 773 773 773 774 774 774 775 775 775 776 777 777 777 778 778 779 779 779 780 781 781 782 783 784 784 785 785 786 786 787 787 787 788 788 788 788 788 788 787 787 787 787 787 788 788 789 789 790 790 791 791 792 793 793 793 794 794 794 794 794 794 793
775 775 775 774 774 774 774 774 774 775 775 775 776 776 776 777 777 778 779 779 779 779 780 780 781 782 783 783 784 784 785 786 786 787 787 788 788 788 788 789 789 789 789 789 789 789 789 789 789 789 789 789 790 790 791 791 792 793 793 793 794 794 794 794 794 794 794 794 793
777 776 776 776 776 776 776 776 776 776 777 777 777 778 778 778 779 779 779 780 780 780 781 782 783 784 784 784 785 786 787 787 788 789 789 789 789 789 789 789 790 790 790 790 790 790 790 790 791 791 791 791 791 792 792 793 793 794 794 794 794 794 795 794 794 794 794 794 794
778 778 778 778 777 777 777 777 778 778 778 779 779 779 780 780 780 781 781 781 782 782 783 783 784 785 785 786 787 787 788 789 789 790 790 790 790 791 791 791 791 791 792 792 792 792 792 792 792 792 792 792 793 793 793 794 794 794 794 795 795 795 795 795 795 794 794 794 793
Wind_Speed
9 11 11 12 12 13 13 14 15 15 15 15 16 16 16 15 15 15 16 16 17 18 18 19 20 20 21 21 22 23 24 25 26 27 28 30 30 31 32 33 33 32 31 30 29 29 30 31 31 31 31 31 30 30 31 32 33 33 32 31 29 30 32 34 34 33 32 32 31
4 6 8 10 10 11 12 13 13 14 14 14 14 15 15 15 16 16 16 16 15 16 16 17 19 20 21 21 21 22 23 24 26 27 29 31 31 31 32 33 33 32 30 29 29 30 30 31 31 30 30 29 28 28 28 30 31 31 31 30 29 30 32 32 32 32 32 31 30
6 4 4 6 7 9 10 11 12 13 14 14 14 14 14 14 14 15 15 15 15 15 15 16 17 19 19 20 21 22 23 24 25 27 29 31 31 31 31 32 32 30 28 27 28 29 30 30 30 29 29 28 27 27 27 28 28 28 28 28 28 30 31 31 31 30 29 28 27
11 9 6 4 4 6 8 10 11 12 13 13 13 13 13 13 13 14 14 14 15 15 15 16 16 18 19 21 22 23 24 25 26 27 29 30 31 31 31 31 31 29 28 27 28 29 30 30 29 28 28 28 28 27 27 27 26 26 26 26 27 28 29 30 29 28 26 25 24
10 10 9 8 6 5 6 7 9 10 11 12 12 12 12 13 13 13 13 13 13 14 14 14 15 17 19 21 22 23 25 26 27 28 29 29 29 30 30 31 30 29 28 28 28 29 30 30 28 27 27 26 26 25 26 26 26 26 25 26 27 27 28 29 29 27 26 24 22
8 8 8 8 9 9 7 7 7 8 9 10 11 12 13 13 13 12 12 12 12 12 13 13 15 16 17 19 21 23 24 26 27 28 28 28 28 29 29 30 30 29 28 28 28 29 29 29 28 27 26 25 23 24 25 25 25 25 25 26 26 27 28 28 28 26 24 23 22
7 7 6 7 7 8 9 9 9 8 8 9 10 12 13 14 14 13 13 12 13 13 14 14 15 16 17 19 21 22 23 24 25 26 26 26 27 28 29 29 29 29 28 27 27 27 27 27 26 25 25 24 24 23 24 24 24 24 24 25 25 26 27 27 26 25 23 22 22
8 7 7 6 6 7 8 9 9 10 9 9 9 10 12 13 14 14 13 13 14 14 14 15 15 16 18 19 20 21 21 22 23 24 25 25 27 28 28 29 29 28 27 27 26 26 25 25 25 25 25 25 25 24 24 23 23 23 23 24 24 25 26 25 25 23 23 23 23
10 9 9 8 7 7 7 8 8 9 10 10 11 12 12 12 13 13 13 13 14 14 14 15 16 18 18 19 19 19 20 21 22 23 24 26 27 27 28 28 27 26 26 25 25 25 25 25 25 25 25 25 25 24 23 23 22 22 23 23 23 23 24 23 23 23 23 23 23
10 10 10 9 8 7 8 8 9 9 10 11 12 13 14 14 14 13 13 13 14 15 16 16 17 18 18 18 18 19 19 20 22 23 24 26 26 27 27 27 26 25 24 24 25 24 24 25 25 24 24 24 24 23 22 22 22 22 23 23 23 22 22 21 22 22 23 23 23
11 10 10 10 9 9 8 8 9 9 10 11 12 13 14 14 14 13 13 14 15 15 16 16 16 17 17 17 17 18 18 19 21 22 23 25 25 26 26 25 24 23 23 23 23 23 23 23 23 23 22 22 22 22 21 22 22 22 23 22 22 21 21 21 22 23 23 23 24
11 10 10 10 10 9 8 8 8 9 10 11 11 11 11 11 11 12 12 13 13 13 14 14 15 15 15 16 16 17 17 18 19 20 21 22 23 23 23 23 22 22 22 22 21 21 22 22 22 21 21 20 20 21 21 21 21 22 21 21 21 21 21 21 22 23 24 24 25
11 11 10 10 9 8 8 7 8 8 9 9 9 9 9 9 10 11 11 11 11 11 12 12 13 13 13 14 15 16 16 16 16 17 18 19 20 20 21 21 21 20 20 20 20 20 21 21 20 20 20 20 19 19 20 20 20 20 20 20 20 20 21 21 22 24 25 25 26
11 11 10 9 8 8 7 7 7 7 7 8 8 8 9 10 11 11 10 9 9 9 10 10 11 11 12 12 13 14 14 15 15 15 15 15 17 18 18 18 18 18 18 19 20 20 19 19 19 19 19 19 18 18 18 18 18 18 19 19 20 21 21 22 23 24 25 26 26
11 11 11 10 9 8 7 7 7 7 7 7 7 8 9 10 11 11 10 9 9 8 8 9 9 10 10 11 11 12 13 13 13 13 13 14 15 16 16 17 17 17 18 19 19 19 18 18 18 18 17 17 17 16 16 16 16 17 18 19 20 21 21 22 23 24 25 26 25
10 10 10 10 9 8 7 7 7 7 8 8 9 9 10 11 11 11 10 10 10 9 9 8 9 10 10 11 12 12 12 12 12 13 13 14 14 15 15 16 16 16 16 17 18 17 17 17 16 16 16 15 15 15 15 15 15 16 17 19 20 20 21 22 23 24 24 24 22
9 9 9 9 9 8 7 7 7 7 7 8 8 9 9 10 10 10 10 9 9 10 10 10 10 10 12 12 12 11 11 11 12 13 13 14 14 14 15 15 15 15 15 16 15 15 15 15 15 14 14 14 14 14 15 15 16 17 18 19 20 20 21 21 22 22 21 20 19
9 9 9 9 9 8 7 7 6 5 5 5 5 5 6 7 7 7 7 7 7 7 8 9 10 11 13 13 13 12 11 11 11 12 12 12 12 13 13 13 13 13 13 14 14 14 14 13 13 13 13 14 14 15 16 16 17 18 19 20 20 20 21 21 20 19 19 19 19
9 9 9 9 9 8 7 6 5 5 5 5 4 4 4 4 4 4 4 5 5 5 6 6 8 10 12 13 14 13 12 11 11 11 11 11 11 11 12 12 12 12 12 12 12 12 12 13 13 13 13 14 14 15 16 17 18 19 20 21 21 20 20 19 18 18 18 19 20
9 9 9 9 9 8 7 6 5 4 4 4 4 3 3 2 3 3 3 3 4 5 6 6 7 9 11 12 14 14 13 12 11 11 11 10 10 11 11 12 12 11 11 11 11 12 12 12 13 13 14 15 15 17 17 18 19 20 21 21 20 20 19 18 18 18 18 18 19
9 9 9 8 8 7 7 6 5 4 3 2 2 2 2 2 2 2 3 4 5 6 6 7 8 9 10 11 12 12 13 12 12 12 12 12 11 11 12 12 12 12 11 11 11 11 12 13 13 14 15 16 17 18 19 19 20 21 21 20 19 19 18 18 17 17 16 16 16
9 9 8 8 7 7 6 5 4 3 2 2 2 1 1 1 2 3 4 5 6 6 7 8 9 9 10 11 11 12 12 13 13 13 13 13 13 12 12 12 12 11 11 11 12 12 13 14 15 15 16 17 18 19 20 20 21 21 20 20 19 18 17 17 16 16 15 15 14
9 8 7 7 6 5 5 4 3 3 4 4 4 4 4 5 5 6 6 7 7 8 9 9 10 10 11 11 12 12 13 14 14 14 13 13 13 13 12 12 11 12 12 12 13 14 15 16 16 17 17 18 19 19 20 20 21 20 20 19 18 17 16 16 15 14 14 13 13
8 7 7 6 6 5 5 5 5 5 6 6 6 6 6 7 7 8 8 9 9 9 10 10 11 11 12 12 12 13 14 15 15 15 14 13 13 13 13 13 13 13 14 14 15 16 17 17 17 18 18 18 19 19 19 19 19 19 19 18 17 17 16 15 14 13 13 12 12
7 7 7 7 7 7 7 7 7 8 8 8 8 8 8 9 9 9 10 10 10 10 11 11 12 13 13 13 14 14 14 15 15 15 15 14 14 14 14 14 14 14 14 15 16 16 17 18 18 18 18 19 19 19 18 18 18 18 18 18 17 16 15 14 13 12 12 12 11
7 8 8 8 8 8 9 9 9 10 10 10 10 10 10 11 11 11 11 12 12 12 12 13 13 14 14 14 15 15 15 15 15 15 15 15 15 15 15 15 15 15 15 15 16 16 17 18 19 19 19 19 19 18 17 17 17 17 17 17 16 16 15 14 13 12 11 10 10
8 9 9 8 9 10 10 10 11 11 11 11 12 12 12 12 12 13 13 14 14 14 14 14 14 14 14 15 15 15 15 15 15 15 16 16 16 15 15 14 15 15 16 16 16 16 16 17 18 19 20 20 19 18 18 17 17 17 17 16 15 15 14 13 12 10 9 9 8
9 9 9 10 11 11 11 12 12 13 13 13 14 14 14 14 14 14 14 15 15 15 15 15 14 14 14 14 14 15 15 15 15 15 15 15 15 14 14 15 15 15 16 16 16 16 16 16 17 18 19 20 19 19 18 18 18 17 16 15 14 13 12 11 10 10 9 9 8
10 10 11 11 12 12 13 13 14 14 14 15 15 15 15 15 15 15 15 15 15 15 14 14 14 14 15 15 15 15 15 15 15 15 15 14 14 14 15 15 16 15 15 15 15 15 15 15 16 17 18 19 19 19 18 18 17 16 15 14 13 12 11 11 10 10 9 9 8
11 11 12 12 13 13 14 14 15 15 15 15 15 16 16 15 15 15 15 15 14 14 14 14 14 15 15 16 16 16 16 16 15 15 15 15 14 14 15 15 15 15 14 14 15 15 15 15 15 16 17 18 18 18 17 16 15 14 14 13 12 12 11 11 10 9 9 8 7
11 12 12 13 14 14 14 14 15 15 15 15 15 16 15 15 14 14 14 14 14 14 14 15 15 16 16 16 17 17 17 16 16 15 15 15 15 15 16 16 16 16 15 15 15 15 16 15 15 15 16 16 15 15 15 14 14 14 13 13 12 12 11 10 10 9 8 7 7
12 12 13 13 14 14 14 14 14 14 15 15 15 15 14 14 14 14 14 14 15 15 16 16 17 17 17 17 17 17 16 16 16 16 16 17 18 18 19 19 18 17 16 15 16 16 15 15 14 14 14 14 14 14 14 14 14 14 14 13 12 11 11 10 10 9 8 7 7
12 12 13 13 14 14 14 14 14 14 15 15 15 15 15 15 15 15 15 15 16 17 17 17 17 17 16 16 16 16 16 16 17 18 19 20 21 21 21 20 19 17 16 15 15 15 14 14 14 13 13 13 14 14 14 14 14 14 14 13 12 11 11 10 9 9 8 7 6
12 12 13 13 13 13 13 14 14 14 15 15 15 15 15 15 15 15 16 16 16 17 17 17 17 16 16 16 17 17 17 18 19 20 21 21 21 21 20 19 17 16 15 14 14 14 14 14 14 14 14 14 14 14 14 14 14 14 13 13 12 11 11 10 9 8 7 6 5
11 12 13 13 13 13 13 14 14 15 16 16 16 16 16 16 16 16 16 16 17 17 18 18 18 18 18 18 19 19 20 20 20 20 20 21 21 20 19 18 16 14 14 13 14 14 14 14 14 14 14 14 15 15 15 15 15 14 14 13 12 11 10 9 7 6 5 4 3
11 12 12 13 13 13 14 14 15 16 16 17 17 16 16 16 16 16 16 17 18 19 19 19 19 20 20 20 20 20 21 21 21 20 19 19 19 19 18 17 15 14 14 14 14 15 14 14 14 14 14 15 15 16 16 15 15 14 14 13 12 10 9 8 7 6 5 4 3
11 12 12 13 13 14 14 15 16 17 17 17 17 17 17 16 16 16 17 18 19 19 19 20 20 21 21 21 21 20 20 20 20 20 19 18 18 18 17 16 16 15 15 15 15 15 15 15 14 14 14 15 16 16 15 14 13 13 12 11 10 9 8 8 7 6 6 5 4
12 13 13 14 15 15 16 17 17 18 18 17 17 17 17 17 17 17 18 19 20 20 21 21 21 22 22 22 22 22 21 20 20 19 19 17 17 16 17 17 16 16 15 15 15 15 15 15 15 15 15 16 15 14 12 11 10 10 9 9 9 8 8 7 7 6 6 5 5
13 14 14 15 16 17 17 18 18 19 18 18 17 17 18 18 18 19 19 20 21 22 22 22 22 22 22 22 22 22 21 20 19 18 17 16 15 16 16 17 16 15 15 14 15 15 15 15 14 14 14 14 12 11 10 9 8 8 8 7 7 6 6 6 5 4 4 4 4
14 15 15 16 17 17 18 18 18 18 18 18 18 18 18 19 19 20 20 21 21 22 22 22 22 22 22 22 22 21 20 19 18 17 16 15 15 16 16 16 15 14 13 13 13 13 13 13 13 12 12 11 10 9 8 8 8 7 6 6 5 4 4 3 3 2 2 2 3
14 15 16 16 16 17 17 18 18 18 18 18 18 18 18 18 19 19 20 20 21 21 22 22 22 21 21 21 20 20 19 18 17 16 16 16 16 15 14 13 13 13 12 12 12 12 12 12 12 11 11 10 9 8 7 7 7 6 6 5 4 3 2 2 1 1 2 2 3
Wind_Direction
254 248 245 245 245 245 245 245 243 243 243 243 245 245 244 242 242 243 243 243 241 241 243 247 249 249 246 242 238 235 233 231 229 228 228 228 228 228 229 228 227 225 229 236 240 240 238 237 236 235 234 234 233 232 232 232 231 229 228 227 227 227 226 225 223 221 220 220 220
294 264 252 247 247 249 249 249 248 246 245 245 246 246 246 247 247 247 246 244 242 241 242 243 248 250 248 244 241 238 235 233 232 231 231 231 231 231 231 230 228 228 234 242 244 241 237 235 232 231 231 232 232 231 231 231 229 227 225 223 223 224 224 223 222 222 221 220 219
15 343 290 259 250 249 251 251 251 250 249 249 248 248 248 248 248 248 248 247 246 245 245 245 247 249 248 244 242 240 238 236 235 234 235 235 233 232 232 230 229 231 236 242 242 239 235 232 230 230 231 232 232 231 230 229 228 225 222 219 219 219 220 220 221 220 219 217 215
29 21 7 330 278 257 253 254 255 254 254 253 252 250 248 248 248 248 249 250 250 250 249 249 249 250 250 248 245 242 239 238 237 237 237 237 235 233 231 230 230 232 237 241 241 238 234 231 230 231 232 233 232 230 228 226 224 223 221 220 218 217 217 217 217 216 214 211 209
27 23 16 7 348 313 279 267 263 262 261 260 258 255 252 251 250 250 250 251 252 253 252 251 251 252 252 250 246 242 239 237 236 236 236 236 235 233 230 229 230 233 237 239 239 237 235 233 231 232 232 231 229 226 224 223 223 222 222 220 218 216 215 214 214 213 210 206 203
23 19 13 6 359 350 333 307 285 274 270 267 264 260 257 255 253 252 252 253 254 255 255 255 254 253 252 249 245 240 237 234 233 232 232 232 231 229 228 228 230 232 234 235 235 233 231 230 229 229 228 226 224 222 220 220 220 219 217 214 213 212 212 211 211 209 204 199 194
12 9 4 358 353 346 340 331 319 302 286 273 266 262 260 259 259 259 259 258 258 259 259 258 256 254 252 248 244 239 235 233 231 229 227 226 226 225 226 227 229 231 232 231 229 227 226 225 225 225 224 221 219 217 217 215 214 211 209 206 208 209 210 209 208 204 197 191 187
356 351 346 342 337 332 327 324 321 315 305 289 275 267 263 263 264 264 265 266 264 262 260 258 257 254 251 247 242 238 234 231 229 226 224 224 224 225 226 227 229 230 230 227 225 223 222 223 223 223 221 219 216 214 214 212 210 208 206 205 207 209 209 208 205 198 190 185 183
348 342 336 330 321 313 307 305 303 301 298 295 289 281 272 267 265 264 265 267 266 264 262 261 259 257 252 247 242 237 233 230 227 225 224 224 225 226 227 228 228 229 229 226 224 222 221 221 221 220 219 217 215 213 212 211 210 209 208 207 207 207 206 204 199 191 184 181 180
343 338 333 326 316 306 296 292 287 284 282 283 285 282 276 269 265 263 262 263 264 264 264 263 261 257 252 246 242 238 234 231 229 227 227 227 227 227 228 228 227 228 227 224 222 219 218 218 217 217 216 216 214 213 214 213 212 210 209 208 206 203 199 195 189 183 179 177 176
342 337 332 326 318 308 299 293 288 283 278 275 275 273 270 267 264 262 260 260 261 263 264 263 260 255 249 244 239 235 232 230 231 230 230 229 229 228 227 227 225 224 222 219 216 214 214 214 214 214 213 214 214 215 216 215 213 210 207 205 201 196 189 184 180 177 175 175 173
346 341 334 326 319 313 308 303 299 295 290 285 281 277 273 267 262 258 256 257 261 263 264 262 258 254 248 242 237 232 229 229 230 231 230 229 228 226 225 223 222 221 218 215 212 211 211 212 211 211 211 213 215 215 214 213 211 206 202 199 195 189 182 178 175 173 172 172 169
351 346 339 330 323 318 316 315 311 307 304 300 297 291 283 273 263 257 254 256 262 266 266 262 259 254 247 240 234 230 227 227 227 228 227 225 224 223 221 220 219 217 214 211 210 210 210 210 210 210 211 213 213 211 209 208 207 203 197 194 189 184 179 174 172 170 169 168 168
354 352 347 339 332 326 323 320 314 312 311 310 306 297 285 278 272 266 260 255 257 263 267 266 262 253 243 235 229 225 223 223 222 221 221 219 219 218 216 215 214 212 210 209 209 208 208 208 209 211 212 212 210 206 203 201 200 196 191 184 178 173 170 168 168 168 166 164 164
355 355 353 349 343 335 326 319 315 313 311 308 306 297 288 282 279 274 265 253 245 247 257 263 261 253 243 232 225 221 219 217 215 212 212 213 214 213 211 209 208 207 207 206 205 205 205 207 208 209 209 208 206 201 196 191 189 186 182 176 171 167 165 164 165 165 165 163 162
356 356 356 355 350 342 332 323 320 317 309 300 296 290 285 281 276 270 260 248 238 231 231 237 244 246 242 232 222 216 212 209 208 207 207 209 208 207 206 204 203 202 203 202 202 203 204 206 206 205 202 199 196 191 185 179 176 173 170 168 165 163 162 162 163 163 164 165 164
360 360 359 358 354 348 340 332 327 325 319 307 299 291 283 278 272 263 253 242 233 222 212 210 220 230 232 226 216 208 203 202 203 204 206 206 204 203 201 200 198 198 199 199 199 200 200 200 199 196 193 188 184 178 173 169 166 164 163 162 161 159 159 160 161 163 165 169 173
4 4 4 3 0 356 350 344 339 337 333 325 318 304 287 277 268 259 249 238 225 211 200 194 200 209 215 216 211 204 198 197 199 202 203 202 200 197 195 193 192 193 194 194 193 193 192 189 186 182 179 176 173 170 168 165 162 161 159 158 157 156 157 159 161 165 170 176 183
6 7 8 7 6 4 2 358 352 341 331 322 318 308 295 279 265 254 243 230 215 201 189 182 182 187 192 196 198 196 194 192 193 194 195 192 190 188 186 185 184 184 184 183 182 181 179 176 173 171 168 167 166 166 165 163 160 158 156 155 154 155 157 161 166 173 178 181 183
9 10 10 10 10 10 10 9 360 342 324 314 304 299 293 276 258 238 218 204 198 192 184 176 172 170 173 177 181 182 183 184 183 182 180 178 175 174 175 174 171 168 167 166 166 166 166 166 166 166 166 164 163 161 159 158 156 155 154 154 155 157 161 166 171 176 178 177 175
9 10 12 13 14 14 13 10 360 348 336 327 310 296 281 250 222 205 193 186 182 179 175 171 168 164 163 164 165 165 166 167 167 166 165 163 161 162 163 162 159 156 155 155 156 158 161 162 162 163 162 161 159 156 154 153 152 153 154 155 157 159 162 165 167 168 168 166 166
8 10 13 16 19 16 10 9 14 25 36 40 55 75 95 121 137 144 151 159 160 157 156 158 157 157 156 154 154 155 154 152 151 153 153 152 151 151 153 155 155 154 153 153 155 157 158 158 158 157 155 154 153 152 152 151 152 153 155 157 158 159 160 161 162 163 163 164 165
9 10 13 18 22 25 27 32 47 59 65 72 78 83 88 95 106 116 125 131 134 135 136 139 142 145 147 149 149 149 146 143 142 142 143 142 142 143 146 151 154 154 153 153 155 155 153 150 149 149 148 147 147 148 150 151 153 154 155 156 156 156 157 159 162 164 166 167 167
14 19 25 32 41 50 58 66 73 79 84 88 88 88 89 94 101 106 110 113 115 119 122 125 128 133 137 140 141 141 140 137 134 133 133 135 137 140 144 148 150 150 150 151 152 152 149 145 143 142 142 143 144 146 148 151 152 153 153 152 152 152 154 158 161 164 164 164 164
27 37 46 53 60 67 73 78 84 88 91 93 93 92 92 94 98 101 101 102 104 107 111 114 119 123 127 130 131 133 133 131 130 130 131 134 138 140 142 143 144 144 146 147 148 148 147 144 141 140 140 142 143 145 147 149 150 150 149 149 148 149 151 154 157 158 159 159 159
41 50 56 62 68 74 78 81 85 88 91 93 93 93 93 94 95 96 97 97 99 101 104 107 110 115 119 122 124 125 126 128 130 132 134 135 136 137 138 137 137 138 139 141 143 143 142 142 142 143 143 144 145 145 144 145 145 146 146 146 147 148 150 151 152 153 155 154 154
51 56 61 66 72 75 78 83 86 89 91 92 93 93 94 95 95 96 96 97 98 100 101 103 106 109 113 117 119 121 123 125 128 130 131 132 131 131 130 130 130 132 134 136 138 138 139 141 144 146 147 146 145 143 141 140 141 143 144 144 146 148 149 148 148 147 146 144 142
55 60 65 70 74 76 79 83 86 88 89 91 93 94 95 95 95 96 98 99 101 102 103 104 107 111 113 114 115 117 119 120 122 123 124 124 123 122 122 123 125 128 131 134 134 135 137 139 144 147 148 147 143 141 139 139 140 142 143 143 145 145 145 143 140 137 133 129 127
57 62 67 71 72 75 78 81 83 86 89 91 93 94 95 96 96 98 100 102 104 104 105 106 111 112 112 110 111 113 114 114 115 115 115 114 113 114 116 119 122 126 130 133 132 132 133 136 141 145 148 148 144 141 140 140 141 141 141 140 138 137 134 131 127 123 120 116 114
60 65 68 70 72 74 76 78 81 85 88 91 93 94 94 95 95 96 97 99 100 101 104 107 108 107 107 108 110 111 110 110 110 110 109 109 110 111 114 116 119 123 126 128 127 126 127 130 136 143 147 148 145 143 141 140 138 136 132 129 126 123 120 116 113 110 108 107 105
62 66 69 71 72 73 75 78 81 84 87 88 90 91 91 90 89 90 91 93 96 100 103 105 103 103 104 107 109 108 108 108 108 108 108 108 108 108 108 110 112 116 119 120 119 119 121 127 134 141 145 146 143 140 136 132 128 123 119 115 112 110 107 105 103 101 101 101 102
62 66 69 71 72 73 76 78 80 82 84 85 86 86 86 86 87 88 91 94 97 99 100 100 99 99 101 102 103 104 104 106 107 108 108 106 103 100 99 100 102 105 108 110 111 113 118 126 133 137 139 138 133 129 124 119 115 110 107 104 102 100 99 98 98 99 100 102 105
64 67 70 71 72 74 75 77 79 80 81 82 82 82 83 85 87 90 92 95 97 97 97 97 97 97 98 99 100 101 101 102 103 104 104 103 101 98 95 93 94 95 98 102 105 111 117 122 126 126 126 123 119 115 111 108 104 102 100 99 97 96 96 97 99 101 104 107 111
66 69 72 73 74 75 76 77 79 80 81 81 81 82 84 86 88 90 92 95 97 98 98 98 98 98 99 100 101 100 99 100 101 102 102 102 101 98 94 90 90 92 95 99 103 108 111 113 114 114 112 110 106 103 100 98 98 98 99 99 99 98 99 99 101 104 108 112 116
68 72 74 75 77 78 79 81 82 83 83 82 82 83 84 86 88 91 94 97 99 100 100 101 102 102 102 102 102 102 101 100 100 101 101 101 100 96 92 90 90 91 93 96 99 101 102 102 103 103 102 100 98 96 96 97 99 100 101 102 102 102 102 102 102 102 103 105 106
71 75 78 79 81 82 83 85 87 86 85 84 84 84 85 86 88 91 96 100 100 100 100 101 103 103 101 100 100 100 101 101 100 100 100 100 99 96 93 91 90 90 91 93 94 94 93 93 92 93 93 94 96 98 100 102 103 103 104 103 103 102 100 98 95 90 86 82 83
80 83 84 85 85 86 88 90 90 89 87 87 86 87 87 88 90 93 98 101 100 99 100 101 102 102 101 101 100 101 102 103 103 103 102 101 100 98 95 93 91 90 90 90 90 89 88 88 88 89 93 98 102 105 106 106 106 106 105 103 102 100 98 93 86 78 69 60 56
89 91 92 92 92 93 94 95 94 92 91 91 91 92 94 95 95 98 102 104 103 102 102 103 103 104 105 106 106 106 107 107 108 108 106 103 99 97 95 94 92 91 90 89 89 89 89 89 90 94 100 105 108 110 110 110 110 109 108 105 102 99 94 87 79 68 56 44 38
96 98 99 99 99 99 98 97 96 96 96 96 97 99 101 101 102 104 107 110 109 108 107 106 106 108 110 112 112 111 111 111 110 109 105 101 96 93 93 95 96 95 93 92 93 93 93 94 96 100 105 109 111 112 112 112 111 110 109 108 105 98 89 79 72 64 50 32 26
97 100 101 101 101 101 100 99 98 99 100 101 102 102 103 105 107 110 112 113 113 113 112 111 111 113 115 116 116 115 114 113 111 108 103 99 96 94 95 98 101 102 101 100 100 99 99 99 100 103 106 110 112 112 112 112 111 111 110 110 109 107 99 85 74 66 46 20 9
93 95 96 97 98 99 99 99 100 101 103 104 104 104 105 108 110 112 113 113 114 114 114 114 115 117 118 118 118 117 116 115 113 109 105 103 102 101 102 104 107 109 110 109 108 107 104 102 99 99 101 106 110 112 113 113 113 112 112 112 115 118 120 115 86 42 15 2 358